Andover, NJ

10:36 AM EDT on August 24, 2016 (GMT -0400)
Andover

Weather History for K12N - January, 2014

Change the Weather History Date:

Monday, January 6, 2014

  Actual Average (KFWN) Record (KFWN)
Temperature  
Mean Temperature 34 °F -  
Max Temperature 55 °F 34 °F 68 °F (2007)
Min Temperature 10 °F 13 °F -12 °F (1970)
Degree Days  
Heating Degree Days 30    
Moisture  
Dew Point 30 °F    
Average Humidity 71    
Maximum Humidity 100    
Minimum Humidity 44    
Precipitation  
Precipitation 0.86 in - - ()
Sea Level Pressure  
Sea Level Pressure 29.57 in    
Wind  
Wind Speed 8 mph (WSW)    
Max Wind Speed 13 mph    
Max Gust Speed 34 mph    
Averages and records for this station are not official NWS values.
T = Trace of Precipitation, MM = Missing Value Source: NWS Daily Summary

Daily Weather History Graph

Daily Weather History Graph

Search for Another Location

Airport or City:

Trip Planner

Search our weather history database for the weather conditions in past years. The results will help you decide how hot, cold, wet, or windy it might be!

Date:

Astronomy

Jan. 06, 2014 Rise Set
Actual Time 7:23 AM EST 4:45 PM EST
Civil Twilight 6:53 AM EST 5:16 PM EST
Nautical Twilight 6:18 AM EST 5:51 PM EST
Astronomical Twilight 5:45 AM EST 6:24 PM EST
Moon 10:34 AM EST (1/6) 11:20 PM EST (1/6)
Length of Visible Light 10h 23m
Length of Day
9h 21m
Waxing Crescent, 34% of the Moon is Illuminated
Jan 6
Waxing Crescent
Jan 7
First Quarter
Jan 15
Full
Jan 24
Last Quarter
Jan 30
New

Hourly Weather History & Observations

Time (EST) Temp. Windchill Dew Point Humidity Pressure Visibility Wind Dir Wind Speed Gust Speed Precip Events Conditions
12:54 AM 48.0 °F - 46.0 °F 93% 29.68 in - Variable 6.9 mph - 0.36 in   Unknown
1:54 AM 48.9 °F - 48.0 °F 97% 29.64 in - South 8.1 mph - 0.04 in   Unknown
2:54 AM 51.1 °F - 50.0 °F 96% 29.60 in - South 10.4 mph 17.3 mph N/A   Unknown
3:54 AM 51.1 °F - 51.1 °F 100% 29.56 in - South 6.9 mph - 0.01 in   Unknown
4:54 AM 53.1 °F - 52.0 °F 96% 29.51 in - South 8.1 mph - N/A   Unknown
5:54 AM 55.0 °F - 54.0 °F 96% 29.45 in - South 9.2 mph 17.3 mph N/A   Unknown
6:54 AM 55.9 °F - 54.0 °F 93% 29.39 in - South 10.4 mph 18.4 mph 0.12 in   Unknown
7:54 AM 51.1 °F - 48.0 °F 89% 29.46 in - SW 12.7 mph 34.5 mph 0.29 in   Unknown
8:54 AM 46.0 °F 43.1 °F 39.9 °F 79% 29.50 in - Variable 5.8 mph - 0.01 in   Unknown
9:54 AM 43.0 °F 41.3 °F 39.9 °F 89% 29.51 in - SSW 3.5 mph - 0.03 in   Unknown
10:54 AM 44.1 °F 40.1 °F 37.0 °F 76% 29.49 in - Variable 6.9 mph - N/A   Unknown
11:54 AM 41.0 °F 35.8 °F 30.0 °F 65% 29.49 in - West 8.1 mph - N/A   Unknown
12:54 PM 39.0 °F 34.8 °F 28.0 °F 65% 29.50 in - Variable 5.8 mph - N/A   Unknown
1:54 PM 39.0 °F - 27.0 °F 62% 29.49 in - Calm Calm - N/A   Unknown
2:54 PM 37.0 °F 30.4 °F 21.9 °F 54% 29.52 in - NW 9.2 mph 16.1 mph N/A   Unknown
3:54 PM 35.1 °F 31.0 °F 19.9 °F 54% 29.54 in - North 4.6 mph - N/A   Unknown
4:54 PM 33.1 °F 25.5 °F 19.0 °F 56% 29.56 in - North 9.2 mph - N/A   Unknown
5:54 PM 32.0 °F 26.4 °F 16.0 °F 52% 29.58 in - NNW 5.8 mph - N/A   Unknown
6:54 PM 30.9 °F 26.2 °F 16.0 °F 54% 29.62 in - Variable 4.6 mph - N/A   Unknown
7:54 PM 28.9 °F 21.1 °F 12.0 °F 49% 29.65 in - WSW 8.1 mph 21.9 mph N/A   Unknown
8:54 PM 25.0 °F 14.2 °F 9.0 °F 51% 29.68 in - West 11.5 mph 20.7 mph N/A   Unknown
9:54 PM 21.0 °F 9.9 °F 6.1 °F 53% 29.72 in - West 10.4 mph 21.9 mph N/A   Unknown
10:54 PM 14.0 °F 5.1 °F -2.9 °F 47% 29.76 in - Variable 5.8 mph 19.6 mph N/A   Unknown
11:54 PM 10.0 °F -0.9 °F -8.0 °F 44% 29.82 in - Variable 6.9 mph 18.4 mph N/A   Unknown